Live-Position
3D-Globus wird geladen...
Über OneWeb SL0626
Group: 3 satellites
Beschreibung wird geladen...
Nächste Überflüge
Passes for default location (London). Set your location on the main map for personalized predictions.
Höhenverlauf
Loading altitude history...
No altitude history available
Zweizeiliger Elementsatz
1 55167U 23004AD 26105.80618669 .00000027 00000-0 37470-4 0 9995
2 55167 87.9187 18.2664 0001888 64.6437 295.4890 13.17650447159367
Epoch: 15. Apr. 2026 •
Age: 16 hours
Aktueller Status
Höhe 1222.3 km
Geschwindigkeit 7.24 km/s
Subsatellitenpunkt -74.24°S,
167.34°W
Startdatum 10. Jan. 2023
Alter 3.2 years
Typ internet
Startgruppe
Unknown Vehicle •
OneWeb Launch 16 •
40 satellites
OneWeb SL0532
55140
OneWeb SL0533 55141
OneWeb SL0541 55142
OneWeb SL0543 55143
OneWeb SL0544 55144
OneWeb SL0560 55145
OneWeb SL0565 55146
OneWeb SL0567 55147
OneWeb SL0569 55148
OneWeb SL0570 55149
OneWeb SL0571 55150
OneWeb SL0572 55151
OneWeb SL0573 55152
OneWeb SL0588 55153
OneWeb SL0598 55154
OneWeb SL0599 55155
OneWeb SL0614 55156
OneWeb SL0616 55157
OneWeb SL0617 55158
OneWeb SL0618 55159
...and 19 more
Technische Details
Klassifizierung Payload
Masse 148.00 kg
Trockenmasse 140.00 kg
Gesamtmasse 148.00 kg
Länge 1.30 m
Durchmesser 1.00 m
Spannweite 5.00 m
Form Trapezoid+2 pan
Hersteller ONEWUS
Bus-Typ ARROW
Phasenstatus In Orbit
Besitzer/Staat ONEWEBN/UK
Most Searched
Loading...